| time (UTC) | temp F | wind direction | speed MPH | gust MPH | rain 1hr in | rain 24hr in | rain mn in | humidity % | barometer mb |
| 20260506125904 | 51 | 32 | 3.0 | 7.0 | 0.00 | 0.64 | 0.46 | 91 | 1012.6 |
| 20260506124904 | 51 | 57 | 1.0 | 5.0 | 0.00 | 0.64 | 0.46 | 92 | 1012.3 |
| 20260506124404 | 51 | 45 | 3.0 | 8.0 | 0.00 | 0.64 | 0.46 | 91 | 1012.1 |
| 20260506123904 | 51 | 29 | 3.0 | 10.0 | 0.00 | 0.64 | 0.46 | 91 | 1012.1 |
| 20260506123405 | 51 | 18 | 5.0 | 10.0 | 0.01 | 0.64 | 0.46 | 91 | 1011.9 |
| 20260506121904 | 51 | 26 | 5.0 | 10.0 | 0.01 | 0.64 | 0.46 | 92 | 1011.7 |
| 20260506121404 | 51 | 12 | 3.0 | 9.0 | 0.02 | 0.64 | 0.46 | 92 | 1012.0 |
| 20260506120905 | 51 | 348 | 5.0 | 10.0 | 0.02 | 0.64 | 0.46 | 92 | 1011.6 |
| 20260506115904 | 50 | 36 | 5.0 | 12.0 | 0.06 | 0.64 | 0.46 | 91 | 1010.9 |
| 20260506115404 | 51 | 69 | 5.0 | 10.0 | 0.08 | 0.64 | 0.46 | 92 | 1010.3 |
| 20260506113404 | 51 | 24 | 3.0 | 9.0 | 0.12 | 0.63 | 0.45 | 92 | 1011.3 |
| 20260506112904 | 51 | 36 | 5.0 | 9.0 | 0.12 | 0.63 | 0.45 | 92 | 1011.3 |
| 20260506112404 | 51 | 27 | 2.0 | 5.0 | 0.12 | 0.63 | 0.45 | 92 | 1011.9 |
| 20260506111904 | 51 | 28 | 3.0 | 3.0 | 0.13 | 0.63 | 0.45 | 92 | 1011.7 |
| 20260506111404 | 51 | 34 | 4.0 | 10.0 | 0.12 | 0.62 | 0.44 | 92 | 1011.5 |
| 20260506110904 | 51 | 44 | 3.0 | 9.0 | 0.12 | 0.62 | 0.44 | 91 | 1011.9 |
| 20260506105904 | 51 | 0 | 5.0 | 9.0 | 0.08 | 0.58 | 0.40 | 91 | 1012.2 |
| 20260506104904 | 51 | 12 | 4.0 | 9.0 | 0.04 | 0.54 | 0.36 | 91 | 1011.6 |
| 20260506104404 | 51 | 34 | 5.0 | 9.0 | 0.02 | 0.52 | 0.34 | 91 | 1011.3 |
| 20260506102904 | 51 | 358 | 3.0 | 9.0 | 0.01 | 0.51 | 0.33 | 91 | 1011.3 |
| 20260506101904 | 51 | 34 | 5.0 | 8.0 | 0.00 | 0.50 | 0.32 | 91 | 1011.0 |
| 20260506101404 | 51 | 12 | 2.0 | 8.0 | 0.00 | 0.50 | 0.32 | 91 | 1011.2 |
| 20260506100904 | 51 | 16 | 2.0 | 7.0 | 0.00 | 0.50 | 0.32 | 91 | 1011.3 |
| 20260506100404 | 51 | 31 | 3.0 | 8.0 | 0.01 | 0.50 | 0.32 | 91 | 1011.2 |
| 20260506095404 | 51 | 16 | 2.0 | 10.0 | 0.03 | 0.50 | 0.32 | 91 | 1011.1 |
| 20260506094404 | 51 | 60 | 4.0 | 8.0 | 0.06 | 0.50 | 0.32 | 91 | 1010.7 |
| 20260506093904 | 51 | 88 | 2.0 | 8.0 | 0.07 | 0.50 | 0.32 | 91 | 1010.6 |
| 20260506093404 | 51 | 15 | 5.0 | 12.0 | 0.08 | 0.50 | 0.32 | 91 | 1010.0 |
| 20260506092904 | 51 | 35 | 5.0 | 13.0 | 0.09 | 0.50 | 0.32 | 91 | 1009.4 |
| 20260506092404 | 51 | 46 | 3.0 | 6.0 | 0.09 | 0.50 | 0.32 | 91 | 1009.6 |
| 20260506091904 | 51 | 52 | 3.0 | 9.0 | 0.09 | 0.50 | 0.32 | 91 | 1009.6 |
| 20260506091404 | 51 | 348 | 2.0 | 8.0 | 0.09 | 0.50 | 0.32 | 91 | 1010.1 |
| 20260506090904 | 51 | 14 | 4.0 | 8.0 | 0.09 | 0.50 | 0.32 | 91 | 1010.1 |
| 20260506090404 | 51 | 8 | 4.0 | 8.0 | 0.08 | 0.49 | 0.31 | 91 | 1009.4 |
| 20260506085904 | 51 | 21 | 5.0 | 10.0 | 0.08 | 0.49 | 0.31 | 91 | 1009.4 |
| 20260506085403 | 51 | 91 | 5.0 | 8.0 | 0.06 | 0.47 | 0.29 | 91 | 1009.9 |
| 20260506084904 | 51 | 21 | 2.0 | 8.0 | 0.05 | 0.46 | 0.28 | 91 | 1010.3 |
| 20260506084404 | 51 | 49 | 4.0 | 13.0 | 0.03 | 0.44 | 0.26 | 91 | 1009.7 |
| 20260506083904 | 52 | 348 | 8.0 | 14.0 | 0.02 | 0.43 | 0.25 | 91 | 1010.1 |
| 20260506083404 | 52 | 65 | 5.0 | 12.0 | 0.01 | 0.42 | 0.24 | 91 | 1009.4 |
| 20260506082904 | 52 | 25 | 3.0 | 5.0 | 0.00 | 0.41 | 0.23 | 91 | 1009.9 |
| 20260506081904 | 52 | 8 | 5.0 | 8.0 | 0.01 | 0.41 | 0.23 | 91 | 1009.8 |
| 20260506081404 | 52 | 25 | 3.0 | 10.0 | 0.01 | 0.41 | 0.23 | 91 | 1009.7 |
| 20260506080904 | 52 | 356 | 7.0 | 20.0 | 0.01 | 0.41 | 0.23 | 90 | 1009.7 |
| 20260506080404 | 52 | 351 | 5.0 | 12.0 | 0.02 | 0.41 | 0.23 | 91 | 1009.9 |
| 20260506073404 | 53 | 346 | 6.0 | 15.0 | 0.19 | 0.41 | 0.23 | 90 | 1008.7 |
| 20260506072904 | 54 | 342 | 6.0 | 15.0 | 0.21 | 0.41 | 0.23 | 90 | 1008.8 |
| 20260506071904 | 55 | 337 | 9.0 | 15.0 | 0.22 | 0.40 | 0.22 | 89 | 1009.2 |
| 20260506071404 | 56 | 331 | 7.0 | 15.0 | 0.22 | 0.40 | 0.22 | 89 | 1009.0 |
| 20260506070904 | 57 | 349 | 8.0 | 15.0 | 0.22 | 0.40 | 0.22 | 89 | 1008.5 |
| 20260506070404 | 58 | 334 | 9.0 | 15.0 | 0.21 | 0.39 | 0.21 | 89 | 1008.8 |
| 20260506061903 | 68 | 348 | 7.0 | 12.0 | 0.00 | 0.18 | 0.00 | 83 | 1007.5 |
| 20260506060904 | 69 | 298 | 2.0 | 7.0 | 0.00 | 0.18 | 0.00 | 82 | 1006.7 |
| 20260506060404 | 69 | 209 | 3.0 | 12.0 | 0.00 | 0.18 | 0.00 | 82 | 1006.6 |
| 20260506051404 | 69 | 221 | 6.0 | 14.0 | 0.00 | 0.18 | 0.00 | 82 | 1007.1 |
| 20260506050904 | 69 | 222 | 6.0 | 10.0 | 0.00 | 0.18 | 0.00 | 82 | 1007.0 |
| 20260506050403 | 69 | 207 | 6.0 | 13.0 | 0.00 | 0.18 | 0.00 | 82 | 1007.0 |
| 20260506044904 | 69 | 217 | 5.0 | 12.0 | 0.00 | 0.18 | 0.18 | 82 | 1007.1 |
| 20260506044403 | 69 | 194 | 6.0 | 12.0 | 0.00 | 0.18 | 0.18 | 82 | 1007.0 |
| 20260506043904 | 69 | 194 | 6.0 | 13.0 | 0.00 | 0.18 | 0.18 | 82 | 1007.1 |
| 20260506043404 | 69 | 198 | 5.0 | 12.0 | 0.00 | 0.18 | 0.18 | 82 | 1007.4 |
| 20260506042904 | 68 | 201 | 3.0 | 9.0 | 0.00 | 0.18 | 0.18 | 82 | 1007.6 |
| 20260506041904 | 68 | 204 | 6.0 | 12.0 | 0.00 | 0.18 | 0.18 | 82 | 1007.7 |
| 20260506040904 | 68 | 211 | 6.0 | 9.0 | 0.00 | 0.18 | 0.18 | 83 | 1007.7 |
| 20260506040404 | 68 | 211 | 7.0 | 15.0 | 0.00 | 0.18 | 0.18 | 83 | 1007.5 |
| 20260506035904 | 68 | 212 | 9.0 | 13.0 | 0.00 | 0.18 | 0.18 | 83 | 1007.6 |
| 20260506035404 | 68 | 211 | 5.0 | 14.0 | 0.00 | 0.18 | 0.18 | 83 | 1007.6 |
| 20260506034904 | 68 | 203 | 7.0 | 13.0 | 0.00 | 0.18 | 0.18 | 83 | 1007.6 |
| 20260506033904 | 68 | 203 | 6.0 | 12.0 | 0.00 | 0.18 | 0.18 | 82 | 1007.6 |
| 20260506033404 | 68 | 193 | 6.0 | 14.0 | 0.00 | 0.18 | 0.18 | 82 | 1007.7 |
| 20260506032904 | 68 | 210 | 9.0 | 21.0 | 0.00 | 0.18 | 0.18 | 83 | 1007.7 |
| 20260506031904 | 68 | 201 | 8.0 | 14.0 | 0.00 | 0.18 | 0.18 | 83 | 1007.7 |
| 20260506031404 | 68 | 206 | 7.0 | 15.0 | 0.00 | 0.18 | 0.18 | 83 | 1007.8 |
| 20260506030904 | 67 | 193 | 7.0 | 13.0 | 0.00 | 0.18 | 0.18 | 83 | 1007.8 |
| 20260506030404 | 67 | 191 | 6.0 | 10.0 | 0.00 | 0.18 | 0.18 | 83 | 1007.9 |
| 20260506025904 | 67 | 230 | 6.0 | 12.0 | 0.00 | 0.18 | 0.18 | 83 | 1008.1 |
| 20260506025404 | 67 | 182 | 6.0 | 14.0 | 0.00 | 0.18 | 0.18 | 83 | 1008.0 |
| 20260506024904 | 67 | 205 | 7.0 | 13.0 | 0.00 | 0.18 | 0.18 | 83 | 1007.9 |
| 20260506024404 | 67 | 199 | 6.0 | 14.0 | 0.00 | 0.18 | 0.18 | 83 | 1007.9 |
| 20260506023904 | 67 | 203 | 6.0 | 12.0 | 0.00 | 0.18 | 0.18 | 83 | 1008.0 |
| 20260506023404 | 67 | 196 | 5.0 | 9.0 | 0.00 | 0.18 | 0.18 | 84 | 1008.0 |
| 20260506022403 | 67 | 191 | 5.0 | 10.0 | 0.00 | 0.18 | 0.18 | 84 | 1007.9 |
| 20260506021904 | 67 | 213 | 3.0 | 12.0 | 0.00 | 0.18 | 0.18 | 84 | 1007.9 |
| 20260506021404 | 67 | 190 | 4.0 | 9.0 | 0.00 | 0.18 | 0.18 | 84 | 1007.9 |
| 20260506020403 | 67 | 190 | 3.0 | 9.0 | 0.00 | 0.18 | 0.18 | 84 | 1007.7 |
| 20260506015904 | 67 | 210 | 4.0 | 7.0 | 0.00 | 0.18 | 0.18 | 84 | 1007.9 |
| 20260506015404 | 67 | 219 | 4.0 | 8.0 | 0.00 | 0.18 | 0.18 | 84 | 1007.9 |
| 20260506014904 | 67 | 204 | 5.0 | 10.0 | 0.00 | 0.18 | 0.18 | 84 | 1007.5 |
| 20260506014404 | 66 | 205 | 3.0 | 9.0 | 0.00 | 0.18 | 0.18 | 84 | 1007.3 |
| 20260506013904 | 66 | 196 | 6.0 | 9.0 | 0.00 | 0.18 | 0.18 | 84 | 1007.3 |
| 20260506012904 | 66 | 198 | 5.0 | 8.0 | 0.00 | 0.18 | 0.18 | 84 | 1007.6 |
| 20260506012404 | 66 | 190 | 5.0 | 9.0 | 0.00 | 0.18 | 0.18 | 85 | 1007.8 |
| 20260506011904 | 66 | 210 | 5.0 | 8.0 | 0.00 | 0.18 | 0.18 | 84 | 1007.8 |
| 20260506011404 | 66 | 195 | 3.0 | 9.0 | 0.00 | 0.18 | 0.18 | 84 | 1007.7 |
| 20260506010903 | 66 | 189 | 5.0 | 9.0 | 0.00 | 0.18 | 0.18 | 84 | 1007.2 |
| 20260506010403 | 66 | 187 | 6.0 | 12.0 | 0.00 | 0.18 | 0.18 | 84 | 1007.5 |
| 20260506005904 | 66 | 192 | 3.0 | 10.0 | 0.00 | 0.18 | 0.18 | 84 | 1007.4 |
| 20260506004904 | 66 | 201 | 5.0 | 9.0 | 0.00 | 0.18 | 0.18 | 84 | 1007.6 |
| 20260506004404 | 66 | 198 | 5.0 | 12.0 | 0.00 | 0.18 | 0.18 | 85 | 1007.5 |
| 20260506003903 | 66 | 186 | 6.0 | 12.0 | 0.00 | 0.18 | 0.18 | 85 | 1007.4 |
| 20260506003404 | 66 | 202 | 5.0 | 9.0 | 0.00 | 0.18 | 0.18 | 85 | 1007.4 |
| 20260506002904 | 65 | 201 | 5.0 | 10.0 | 0.00 | 0.18 | 0.18 | 85 | 1007.5 |
| 20260506002404 | 65 | 205 | 5.0 | 9.0 | 0.00 | 0.18 | 0.18 | 84 | 1007.5 |
| 20260506001904 | 65 | 216 | 5.0 | 12.0 | 0.00 | 0.18 | 0.18 | 85 | 1007.5 |
| 20260506001404 | 65 | 204 | 5.0 | 12.0 | 0.00 | 0.18 | 0.18 | 84 | 1007.5 |
| 20260506000904 | 65 | 185 | 5.0 | 10.0 | 0.00 | 0.18 | 0.18 | 84 | 1007.4 |
| 20260506000403 | 65 | 216 | 7.0 | 10.0 | 0.00 | 0.18 | 0.18 | 84 | 1007.5 |
| 20260505235404 | 65 | 189 | 5.0 | 10.0 | 0.00 | 0.18 | 0.18 | 85 | 1007.5 |
| 20260505234904 | 65 | 196 | 6.0 | 9.0 | 0.00 | 0.18 | 0.18 | 85 | 1007.6 |
| 20260505234404 | 65 | 211 | 5.0 | 10.0 | 0.00 | 0.18 | 0.18 | 85 | 1007.8 |
| 20260505231904 | 65 | 193 | 5.0 | 10.0 | 0.00 | 0.18 | 0.18 | 85 | 1007.7 |
| 20260505231404 | 65 | 177 | 5.0 | 9.0 | 0.00 | 0.18 | 0.18 | 85 | 1007.6 |
| 20260505230903 | 65 | 170 | 5.0 | 12.0 | 0.00 | 0.18 | 0.18 | 85 | 1007.5 |
| 20260505230404 | 65 | 202 | 5.0 | 10.0 | 0.00 | 0.18 | 0.18 | 85 | 1007.5 |
| 20260505225904 | 65 | 182 | 6.0 | 16.0 | 0.00 | 0.18 | 0.18 | 85 | 1007.6 |
| 20260505225404 | 65 | 211 | 6.0 | 14.0 | 0.00 | 0.18 | 0.18 | 85 | 1007.7 |
| 20260505224904 | 65 | 200 | 5.0 | 9.0 | 0.00 | 0.18 | 0.18 | 85 | 1007.7 |
| 20260505224404 | 64 | 204 | 7.0 | 12.0 | 0.00 | 0.18 | 0.18 | 85 | 1007.7 |
| 20260505222903 | 64 | 193 | 5.0 | 12.0 | 0.00 | 0.18 | 0.18 | 86 | 1007.9 |
| 20260505222403 | 64 | 196 | 6.0 | 13.0 | 0.00 | 0.18 | 0.18 | 86 | 1008.0 |
| 20260505221904 | 64 | 195 | 8.0 | 14.0 | 0.00 | 0.18 | 0.18 | 86 | 1008.2 |
| 20260505221404 | 64 | 206 | 6.0 | 12.0 | 0.00 | 0.18 | 0.18 | 86 | 1008.2 |
| 20260505220904 | 64 | 208 | 5.0 | 10.0 | 0.00 | 0.18 | 0.18 | 87 | 1008.1 |
| 20260505220404 | 64 | 224 | 6.0 | 12.0 | 0.00 | 0.18 | 0.18 | 86 | 1008.1 |
| 20260505215904 | 64 | 196 | 7.0 | 13.0 | 0.00 | 0.18 | 0.18 | 87 | 1008.0 |
| 20260505214904 | 64 | 216 | 5.0 | 13.0 | 0.00 | 0.18 | 0.18 | 87 | 1008.2 |
| 20260505213903 | 64 | 199 | 6.0 | 12.0 | 0.00 | 0.18 | 0.18 | 88 | 1008.3 |
| 20260505213404 | 64 | 202 | 6.0 | 12.0 | 0.00 | 0.18 | 0.18 | 88 | 1008.3 |
| 20260505212904 | 64 | 192 | 7.0 | 12.0 | 0.00 | 0.18 | 0.18 | 88 | 1008.3 |
| 20260505212403 | 64 | 213 | 6.0 | 10.0 | 0.00 | 0.18 | 0.18 | 88 | 1008.3 |
| 20260505211904 | 64 | 216 | 5.0 | 12.0 | 0.00 | 0.18 | 0.18 | 89 | 1008.4 |
| 20260505210403 | 64 | 219 | 6.0 | 12.0 | 0.01 | 0.18 | 0.18 | 89 | 1008.4 |
| 20260505205903 | 64 | 203 | 7.0 | 14.0 | 0.01 | 0.18 | 0.18 | 89 | 1008.3 |
| 20260505205404 | 64 | 197 | 6.0 | 14.0 | 0.01 | 0.18 | 0.18 | 90 | 1008.3 |
| 20260505204404 | 63 | 190 | 7.0 | 12.0 | 0.02 | 0.18 | 0.18 | 90 | 1008.3 |
| 20260505203903 | 63 | 201 | 5.0 | 12.0 | 0.02 | 0.18 | 0.18 | 90 | 1008.4 |
| 20260505203403 | 63 | 199 | 6.0 | 9.0 | 0.02 | 0.18 | 0.18 | 90 | 1008.5 |
| 20260505202904 | 63 | 194 | 3.0 | 8.0 | 0.02 | 0.18 | 0.18 | 90 | 1008.7 |
| 20260505202404 | 63 | 211 | 3.0 | 6.0 | 0.02 | 0.18 | 0.18 | 90 | 1008.7 |
| 20260505201903 | 63 | 200 | 5.0 | 8.0 | 0.03 | 0.18 | 0.18 | 90 | 1008.8 |
| 20260505201405 | 63 | 193 | 5.0 | 9.0 | 0.02 | 0.17 | 0.17 | 89 | 1008.9 |
| 20260505200904 | 63 | 187 | 5.0 | 7.0 | 0.02 | 0.17 | 0.17 | 89 | 1008.9 |
| 20260505200405 | 63 | 198 | 3.0 | 7.0 | 0.02 | 0.17 | 0.17 | 89 | 1008.9 |
| 20260505195905 | 63 | 204 | 5.0 | 10.0 | 0.02 | 0.17 | 0.17 | 89 | 1008.8 |
| 20260505195405 | 63 | 200 | 4.0 | 10.0 | 0.02 | 0.17 | 0.17 | 89 | 1008.8 |
| 20260505194906 | 63 | 195 | 4.0 | 7.0 | 0.02 | 0.17 | 0.17 | 88 | 1009.0 |
| 20260505194404 | 63 | 198 | 5.0 | 9.0 | 0.02 | 0.16 | 0.16 | 88 | 1008.8 |
| 20260505193904 | 63 | 205 | 7.0 | 14.0 | 0.03 | 0.16 | 0.16 | 88 | 1008.7 |
| 20260505193405 | 63 | 195 | 7.0 | 15.0 | 0.03 | 0.16 | 0.16 | 87 | 1009.0 |
| 20260505192905 | 63 | 191 | 9.0 | 16.0 | 0.04 | 0.16 | 0.16 | 87 | 1008.9 |
| 20260505192405 | 63 | 184 | 10.0 | 17.0 | 0.06 | 0.16 | 0.16 | 87 | 1008.8 |
| 20260505191904 | 63 | 173 | 6.0 | 14.0 | 0.05 | 0.15 | 0.15 | 88 | 1008.7 |
| 20260505191405 | 63 | 198 | 7.0 | 16.0 | 0.05 | 0.15 | 0.15 | 88 | 1008.9 |
| 20260505190905 | 63 | 190 | 6.0 | 15.0 | 0.05 | 0.15 | 0.15 | 89 | 1009.0 |
| 20260505190405 | 63 | 167 | 8.0 | 17.0 | 0.05 | 0.15 | 0.15 | 89 | 1009.1 |
| 20260505185905 | 63 | 185 | 7.0 | 13.0 | 0.05 | 0.15 | 0.15 | 89 | 1009.2 |
| 20260505185405 | 63 | 200 | 8.0 | 13.0 | 0.05 | 0.15 | 0.15 | 89 | 1009.4 |
| 20260505184905 | 63 | 198 | 6.0 | 12.0 | 0.05 | 0.15 | 0.15 | 89 | 1009.5 |
| 20260505182905 | 63 | 211 | 7.0 | 15.0 | 0.02 | 0.12 | 0.12 | 87 | 1009.9 |
| 20260505182405 | 63 | 197 | 9.0 | 12.0 | 0.01 | 0.10 | 0.10 | 86 | 1009.7 |
| 20260505181904 | 63 | 208 | 7.0 | 15.0 | 0.01 | 0.10 | 0.10 | 86 | 1010.0 |
| 20260505181405 | 64 | 210 | 7.0 | 12.0 | 0.01 | 0.10 | 0.10 | 85 | 1010.4 |
| 20260505180904 | 64 | 200 | 3.0 | 9.0 | 0.01 | 0.10 | 0.10 | 86 | 1009.9 |
| 20260505175905 | 64 | 200 | 7.0 | 13.0 | 0.01 | 0.10 | 0.10 | 86 | 1009.9 |
| 20260505174405 | 64 | 206 | 6.0 | 12.0 | 0.01 | 0.10 | 0.10 | 86 | 1009.8 |
| 20260505173905 | 64 | 209 | 2.0 | 16.0 | 0.01 | 0.10 | 0.10 | 87 | 1009.8 |
| 20260505173405 | 64 | 224 | 3.0 | 12.0 | 0.01 | 0.10 | 0.10 | 86 | 1009.7 |
| 20260505171905 | 63 | 210 | 7.0 | 14.0 | 0.00 | 0.09 | 0.09 | 85 | 1010.1 |
| 20260505171405 | 64 | 204 | 7.0 | 20.0 | 0.00 | 0.09 | 0.09 | 85 | 1010.3 |
| 20260505170904 | 64 | 215 | 7.0 | 13.0 | 0.00 | 0.09 | 0.09 | 86 | 1010.5 |
| 20260505170404 | 63 | 217 | 5.0 | 12.0 | 0.00 | 0.09 | 0.09 | 87 | 1010.3 |
| 20260505165905 | 62 | 228 | 6.0 | 15.0 | 0.00 | 0.09 | 0.09 | 87 | 1010.0 |
| 20260505165405 | 62 | 221 | 7.0 | 15.0 | 0.00 | 0.09 | 0.09 | 87 | 1010.3 |
| 20260505164904 | 62 | 224 | 3.0 | 16.0 | 0.00 | 0.09 | 0.09 | 87 | 1010.3 |
| 20260505164405 | 62 | 202 | 7.0 | 17.0 | 0.00 | 0.09 | 0.09 | 86 | 1010.1 |
| 20260505163905 | 62 | 194 | 6.0 | 20.0 | 0.00 | 0.09 | 0.09 | 87 | 1010.1 |
| 20260505163404 | 62 | 199 | 6.0 | 13.0 | 0.00 | 0.09 | 0.09 | 88 | 1010.1 |
| 20260505162405 | 61 | 193 | 10.0 | 20.0 | 0.00 | 0.09 | 0.09 | 88 | 1009.9 |
| 20260505161904 | 61 | 211 | 7.0 | 16.0 | 0.00 | 0.09 | 0.09 | 88 | 1010.0 |
| 20260505161405 | 61 | 200 | 10.0 | 17.0 | 0.01 | 0.09 | 0.09 | 88 | 1010.0 |
| 20260505160905 | 60 | 206 | 10.0 | 15.0 | 0.01 | 0.09 | 0.09 | 88 | 1010.0 |
| 20260505160405 | 60 | 213 | 8.0 | 17.0 | 0.01 | 0.09 | 0.09 | 88 | 1010.1 |
| 20260505152904 | 59 | 191 | 7.0 | 14.0 | 0.07 | 0.09 | 0.09 | 87 | 1010.1 |
| 20260505152404 | 59 | 185 | 8.0 | 16.0 | 0.08 | 0.09 | 0.09 | 87 | 1010.2 |
| 20260505151906 | 59 | 192 | 8.0 | 14.0 | 0.09 | 0.09 | 0.09 | 87 | 1010.6 |
| 20260505151405 | 59 | 195 | 5.0 | 12.0 | 0.08 | 0.08 | 0.08 | 87 | 1010.6 |
| 20260505140405 | 61 | 207 | 6.0 | 14.0 | 0.00 | 0.00 | 0.00 | 76 | 1011.0 |